Terminal Aerodrome Forecast
Issued by NWS Dodge City, KS

Home | Current Version | Previous Version | Graphics & Text | Print | Product List | Glossary Off
Versions: 1 2 3 4 5 6 7 8 9 10 11 12 13 14 15 16 17 18 19 20 21 22 23 24

262
FTUS43 KDDC 080524
TAFDDC
TAF
KDDC 080524Z 0806/0906 31017G25KT P6SM SCT110
     FM081600 33025G32KT P6SM FEW250
     FM081900 33030G37KT P6SM FEW250
     FM090000 33013KT P6SM SKC=

USA.gov is the U.S. government's official web portal to all federal, state and local government web resources and services.